Date String (YYYY-MM-DD hh:mm:ss) UTC,Instrument flags,Ambient pressure (hPa),Sample flow (lpm),Bypass flow (lpm),Sample temperature (°C),Ambient temperature (°C),ASC tube jacket temperature (°C),LED temperature (°C),Box temperature (°C),Sample RH (%),Span deviation,Mass concentration (μg/m³),Mass concentration (μg/m³),Mass concentration (μg/m³)
DateTimeUTC,F1_M11,P_M11,Q1_M11,Q2_M11,T1_M11,T2_M11,T3_M11,T4_M11,T5_M11,U1_M11,ZSPAN_M11,X2_M11,X0_M11,X1_M11
2022-08-11 21:00:00,,0829.9,5.01,0.00,29.3,27.8,00.0,38.0,31.2,26.6,0000.0,0005.98,0015.05,0004.74
2022-08-11 21:01:00,,0829.8,4.99,0.00,29.3,27.3,00.0,38.0,31.1,26.9,0000.0,0006.01,0015.07,0004.74
2022-08-11 21:02:00,,0829.8,4.99,0.00,29.2,27.2,00.0,37.9,31.1,26.9,0000.0,0006.06,0014.92,0004.75
2022-08-11 21:03:00,,0829.9,5.01,0.00,29.2,27.3,00.0,37.9,31.0,27.1,0000.0,0006.09,0015.25,0004.77
2022-08-11 21:04:00,,0829.9,4.99,0.00,29.2,27.4,00.0,37.9,31.0,27.4,0000.0,0006.05,0015.17,0004.78
2022-08-11 21:05:00,,0829.8,4.99,0.00,29.2,27.7,00.0,38.0,31.1,27.3,0000.0,0006.05,0015.24,0004.78
2022-08-11 21:06:00,,0829.9,5.00,0.00,29.3,27.9,00.0,38.0,31.2,27.4,0000.0,0006.10,0015.33,0004.79
2022-08-11 21:07:00,,0829.8,5.01,0.00,29.3,28.1,00.0,38.0,31.3,27.2,0000.0,0006.14,0015.66,0004.79
2022-08-11 21:08:00,,0829.8,5.00,0.00,29.4,28.1,00.0,38.0,31.3,27.3,0000.0,0006.14,0015.86,0004.79
2022-08-11 21:09:00,,0829.8,5.00,0.00,29.3,27.6,00.0,38.0,31.1,26.1,0000.0,0006.16,0016.20,0004.79
2022-08-11 21:10:00,,0829.8,5.00,0.00,29.3,27.2,00.0,38.0,31.0,26.7,0000.0,0006.18,0016.41,0004.78
2022-08-11 21:11:00,,0829.8,5.01,0.00,29.2,27.3,00.0,38.0,31.1,26.6,0000.0,0006.20,0016.57,0004.78
2022-08-11 21:12:00,,0829.8,4.99,0.00,29.2,27.4,00.0,37.9,31.0,26.8,0000.0,0006.18,0017.18,0004.79
2022-08-11 21:13:00,,0829.8,5.00,0.00,29.2,27.6,00.0,38.0,31.1,26.8,0000.0,0006.18,0016.92,0004.80
2022-08-11 21:14:00,,0829.8,4.99,0.00,29.3,27.8,00.0,38.0,31.1,26.5,0000.0,0006.13,0016.91,0004.80
2022-08-11 21:15:00,,0829.8,5.00,0.00,29.3,28.0,00.0,38.0,31.2,26.5,0000.0,0006.17,0017.48,0004.81
2022-08-11 21:16:00,,0829.8,5.00,0.00,29.4,28.2,00.0,38.0,31.3,26.4,0000.0,0006.19,0017.24,0004.82
2022-08-11 21:17:00,,0829.8,5.00,0.00,29.4,27.9,00.0,38.0,31.2,27.2,0000.0,0006.16,0017.14,0004.83
2022-08-11 21:18:00,,0829.8,5.01,0.00,29.3,27.3,00.0,38.0,31.0,27.3,0000.0,0006.12,0016.28,0004.84
2022-08-11 21:19:00,,0829.8,5.01,0.00,29.3,27.1,00.0,38.0,31.0,27.4,0000.0,0006.12,0016.46,0004.85
2022-08-11 21:20:00,,0829.8,4.99,0.00,29.2,27.2,00.0,38.0,31.0,27.6,0000.0,0006.12,0016.41,0004.85
2022-08-11 21:21:00,,0829.8,5.01,0.00,29.2,27.4,00.0,38.0,31.1,26.7,0000.0,0006.11,0016.87,0004.87
2022-08-11 21:22:00,,0829.8,5.00,0.00,29.2,27.6,00.0,38.0,31.1,26.7,0000.0,0006.13,0016.79,0004.88
2022-08-11 21:23:00,,0829.8,5.00,0.00,29.3,27.9,00.0,38.0,31.2,26.6,0000.0,0006.09,0015.76,0004.88
2022-08-11 21:24:00,,0829.7,5.00,0.00,29.3,28.1,00.0,38.0,31.3,26.7,0000.0,0006.06,0015.63,0004.88
2022-08-11 21:25:00,,0829.8,5.01,0.00,29.4,28.3,00.0,38.0,31.4,26.4,0000.0,0006.09,0015.13,0004.89
2022-08-11 21:26:00,,0829.7,4.99,0.00,29.4,28.0,00.0,38.0,31.3,26.4,0000.0,0006.10,0014.22,0004.90
2022-08-11 21:27:00,,0829.7,5.01,0.00,29.4,27.4,00.0,38.0,31.2,26.3,0000.0,0006.13,0014.15,0004.91
2022-08-11 21:28:00,,0829.7,4.99,0.00,29.3,27.3,00.0,38.0,31.1,26.3,0000.0,0006.16,0015.34,0004.93
2022-08-11 21:29:00,,0829.8,5.01,0.00,29.3,27.3,00.0,38.0,31.1,26.3,0000.0,0006.18,0015.77,0004.94
2022-08-11 21:30:00,,0829.8,4.99,0.00,29.3,27.5,00.0,38.0,31.1,26.0,0000.0,0006.21,0015.15,0004.94
2022-08-11 21:31:00,,0829.8,5.00,0.00,29.3,27.7,00.0,38.0,31.1,26.4,0000.0,0006.22,0015.05,0004.94
2022-08-11 21:32:00,,0829.7,5.00,0.00,29.3,27.9,00.0,38.0,31.3,26.8,0000.0,0006.25,0014.95,0004.96
2022-08-11 21:33:00,,0829.8,5.00,0.00,29.4,28.1,00.0,38.0,31.3,26.6,0000.0,0006.23,0014.63,0004.97
2022-08-11 21:34:00,,0829.7,5.00,0.00,29.4,28.2,00.0,38.0,31.4,26.3,0000.0,0006.29,0015.09,0004.99
2022-08-11 21:35:00,,0829.7,4.99,0.00,29.4,27.7,00.0,38.0,31.3,26.2,0000.0,0006.37,0015.37,0005.00
2022-08-11 21:36:00,,0829.6,5.02,0.00,29.3,27.3,00.0,38.0,31.1,26.4,0000.0,0006.40,0015.22,0005.02
2022-08-11 21:37:00,,0829.6,5.01,0.00,29.3,27.3,00.0,38.0,31.1,27.2,0000.0,0006.34,0015.03,0005.01
2022-08-11 21:38:00,,0829.7,5.00,0.00,29.3,27.4,00.0,38.0,31.1,26.8,0000.0,0006.33,0015.22,0005.01
2022-08-11 21:39:00,,0829.6,4.99,0.00,29.3,27.6,00.0,38.0,31.1,26.5,0000.0,0006.38,0014.12,0005.02
2022-08-11 21:40:00,,0829.7,4.99,0.00,29.3,27.8,00.0,38.0,31.2,26.6,0000.0,0006.37,0013.30,0005.03
2022-08-11 21:41:00,,0829.6,5.00,0.00,29.4,28.0,00.0,38.0,31.3,26.6,0000.0,0006.38,0013.59,0005.04
2022-08-11 21:42:00,,0829.7,5.00,0.00,29.4,28.2,00.0,38.1,31.4,26.6,0000.0,0006.38,0014.97,0005.04
2022-08-11 21:43:00,,0829.6,5.00,0.00,29.4,28.0,00.0,38.1,31.3,26.0,0000.0,0006.35,0015.32,0005.02
2022-08-11 21:44:00,,0829.6,4.99,0.00,29.4,27.4,00.0,38.0,31.2,26.4,0000.0,0006.33,0015.63,0005.00
2022-08-11 21:45:00,,0829.6,5.01,0.00,29.3,27.3,00.0,38.0,31.2,26.7,0000.0,0006.26,0015.27,0004.97
2022-08-11 21:46:00,,0829.6,4.99,0.00,29.3,27.3,00.0,38.0,31.1,26.4,0000.0,0006.19,0015.75,0004.95
2022-08-11 21:47:00,,0829.5,5.00,0.00,29.3,27.5,00.0,38.0,31.1,26.2,0000.0,0006.14,0016.04,0004.94
2022-08-11 21:48:00,,0829.5,5.01,0.00,29.3,27.7,00.0,38.0,31.2,26.3,0000.0,0006.18,0016.24,0004.94
2022-08-11 21:49:00,,0829.5,5.00,0.00,29.3,27.9,00.0,38.0,31.3,26.6,0000.0,0006.13,0016.00,0004.94
2022-08-11 21:50:00,,0829.5,5.00,0.00,29.4,28.1,00.0,38.1,31.4,26.5,0000.0,0006.09,0015.96,0004.93
2022-08-11 21:51:00,,0829.5,5.00,0.00,29.4,27.9,00.0,38.1,31.3,26.6,0000.0,0006.18,0017.10,0004.92
2022-08-11 21:52:00,,0829.5,5.00,0.00,29.4,27.3,00.0,38.0,31.1,26.6,0000.0,0006.19,0017.73,0004.91
2022-08-11 21:53:00,,0829.5,5.00,0.00,29.3,27.1,00.0,38.0,31.1,26.5,0000.0,0006.17,0017.05,0004.92
2022-08-11 21:54:00,,0829.5,5.00,0.00,29.3,27.2,00.0,38.0,31.1,27.1,0000.0,0006.11,0015.96,0004.91
2022-08-11 21:55:00,,0829.5,5.00,0.00,29.3,27.4,00.0,38.0,31.1,26.7,0000.0,0006.10,0015.51,0004.92
2022-08-11 21:56:00,,0829.4,4.99,0.00,29.3,27.6,00.0,38.0,31.1,26.9,0000.0,0006.12,0016.04,0004.93
2022-08-11 21:57:00,,0829.5,5.02,0.00,29.3,27.9,00.0,38.0,31.2,26.6,0000.0,0006.14,0015.35,0004.95
2022-08-11 21:58:00,,0829.5,5.00,0.00,29.4,28.1,00.0,38.1,31.3,26.8,0000.0,0006.16,0014.68,0004.95
2022-08-11 21:59:00,,0829.5,5.00,0.00,29.4,28.2,00.0,38.1,31.4,26.6,0000.0,0006.16,0015.31,0004.95
